Home > Weather > Charleston > Past weeks

Flag for USA Past Weather in Charleston, South Carolina, USA — Yesterday and Last 2 Weeks

Now
90 °F

Scattered clouds.


Feels Like: 93 °F
Forecast: 78 / 88 °F
Wind: 14 mph from East

Location: Charleston Air Force Base Reporting Station

Current Time: Aug 23, 2016 at 5:15:59 PM

Latest Report: Aug 23, 2016 at 3:56 PM


Visibility: 10 mi

Pressure: 30.19 "Hg

Humidity: 47%

Dew Point: 67 °F

Location of CharlestonLocation

Past Weather in Charleston — Graph

°F

Charleston Temperature Yesterday

Maximum temperature yesterday: 92 °F (at 1:56 PM)
Minimum temperature yesterday: 77 °F (at 5:56 AM)
Average temperature yesterday: 84 °F

High & Low Weather Summary for the Past Weeks

 TemperatureHumidityPressure
High96 °F (Aug 21, 1:56 PM)94% (Aug 12, 6:56 AM)30.25 "Hg (Aug 12, 6:56 AM)
Low74 °F (Aug 18, 7:56 PM)44% (Aug 14, 3:56 PM)29.86 "Hg (Aug 20, 5:56 PM)
Average84 °F72%30.07 "Hg
* Reported Aug 8 3:56 PM — Aug 23 3:56 PM, Charleston, Weather by CustomWeather, © 2016

Note: Actual official high and low records may vary slightly from our data, if they occured in-between our weather recording intervals... More about our weather records

Advertising

Charleston Weather History for the Previous 24 Hours

Scroll right to see more
 ConditionsComfort  
Time TempWeatherWind HumidityBarometerVisibility
3:56 PM
Tue, Aug 23
90 °FScattered clouds.14 mph47%30.19 "Hg10 mi
2:56 PM89 °FBroken clouds.13 mph50%30.21 "Hg10 mi
1:56 PM90 °FBroken clouds.13 mph52%30.23 "Hg10 mi
12:56 PM88 °FPartly sunny.8 mph54%30.24 "Hg10 mi
11:56 AM89 °FPartly sunny.12 mph57%30.24 "Hg10 mi
10:56 AM87 °FPartly sunny.7 mph59%30.25 "Hg10 mi
9:56 AM87 °FPassing clouds.8 mph63%30.23 "Hg10 mi
8:56 AM84 °FPassing clouds.6 mph72%30.22 "Hg10 mi
7:56 AM80 °FPartly sunny.6 mph85%30.21 "Hg10 mi
6:56 AM80 °FPassing clouds.6 mph81%30.19 "Hg10 mi
5:56 AM79 °FOvercast.5 mph88%30.17 "Hg10 mi
4:56 AM78 °FPassing clouds.5 mph87%30.16 "Hg10 mi
3:56 AM76 °FPassing clouds.No wind91%30.16 "Hg10 mi
2:56 AM76 °FPassing clouds.3 mph91%30.15 "Hg10 mi
1:56 AM78 °FPassing clouds.No wind84%30.15 "Hg10 mi
12:56 AM79 °FPassing clouds.No wind82%30.15 "Hg10 mi
11:56 PM
Mon, Aug 22
80 °FPassing clouds.3 mph76%30.14 "Hg10 mi
10:56 PM82 °FPassing clouds.No wind72%30.15 "Hg10 mi
9:56 PM82 °FClear.3 mph72%30.14 "Hg10 mi
8:56 PM81 °FClear.3 mph69%30.12 "Hg10 mi
7:56 PM85 °FBroken clouds.9 mph59%30.10 "Hg10 mi
6:56 PM87 °FPartly sunny.9 mph57%30.08 "Hg10 mi
5:56 PM89 °FPassing clouds.3 mph52%30.07 "Hg10 mi
Weather by CustomWeather, © 2016

See weather overviewHow to use our weather pages